Wind_Speed
35 36 40 42 42 43 43 42 43 45 43 42 46 49 47 45 47 51 58 63 61 60 65 66 64 63 65 68 68 67 66 64 64 66 70 72 70 67 65 62 59 57 57 59 59 58 56 55 55 55 54 54 54 54 54 52 51 51 50 46 43 40 36 36 36 34 32 34 36 37 38 40 41 41
29 32 36 39 40 39 39 40 42 44 41 39 42 46 45 43 45 47 52 61 61 55 57 63 65 63 60 62 64 64 65 64 63 66 70 73 72 70 68 66 63 60 60 61 62 62 60 57 57 56 56 55 55 55 56 55 53 53 53 49 47 45 40 39 39 37 36 37 38 38 37 38 40 40
26 30 33 34 36 37 36 36 38 41 39 37 39 43 46 45 45 44 46 54 61 58 53 54 60 64 62 60 59 60 62 64 64 66 70 72 72 72 72 70 66 63 62 63 64 65 64 60 58 58 58 57 58 57 57 57 56 55 54 52 50 49 45 43 41 39 39 40 40 40 38 38 39 40
28 31 31 32 33 35 35 34 36 40 39 37 36 38 42 43 44 44 45 49 56 59 55 49 50 57 62 62 60 58 59 61 63 65 68 71 71 72 75 73 68 64 64 65 65 65 66 64 61 60 60 59 59 59 59 58 57 57 56 55 54 52 50 48 46 43 42 41 41 43 42 42 42 42
29 32 31 31 31 31 33 33 35 39 39 36 35 36 38 40 43 45 44 45 51 56 56 50 45 49 58 62 63 61 59 59 60 61 64 68 69 70 72 70 67 65 64 64 63 63 65 67 65 63 62 62 61 60 60 59 59 58 57 57 56 55 54 53 51 49 46 44 43 45 46 45 44 44
27 30 30 30 30 30 31 30 31 35 38 37 36 35 36 38 41 45 43 41 45 50 54 51 44 44 51 58 62 63 61 59 60 59 58 61 64 67 70 68 66 65 64 63 62 61 61 64 67 66 64 63 63 63 62 61 60 60 59 58 58 57 57 57 57 55 53 50 49 49 49 48 46 46
26 27 28 28 28 29 30 29 28 32 36 38 37 34 33 35 38 44 45 43 41 42 47 51 48 43 43 50 57 60 60 59 60 60 57 56 58 63 67 67 65 64 63 62 61 60 58 58 62 65 67 66 65 65 65 64 63 62 61 60 59 58 58 59 59 58 57 56 55 54 53 51 49 48
27 26 26 27 27 29 30 29 29 32 35 37 37 34 34 34 34 39 45 47 45 40 39 43 47 44 40 41 47 53 56 57 58 58 57 55 55 59 64 65 63 62 62 62 61 60 58 57 57 60 64 66 67 68 67 67 66 65 64 63 61 60 59 59 59 58 58 58 58 58 56 55 53 52
30 27 25 24 25 28 31 31 30 32 33 33 33 32 34 35 33 34 39 44 46 43 38 36 39 42 41 39 40 45 50 53 55 57 57 55 53 56 60 61 60 59 60 61 61 60 59 58 57 58 60 63 66 68 68 69 69 68 66 65 64 63 62 61 61 60 59 58 58 58 57 57 56 55
32 31 26 24 25 27 29 31 31 31 30 30 29 29 32 34 33 33 36 40 44 45 42 38 36 39 42 42 40 40 43 46 49 52 54 53 52 52 54 57 58 58 58 59 59 59 59 59 59 59 59 60 62 66 68 69 70 70 69 68 67 66 65 65 64 63 61 60 59 58 58 57 57 56
33 34 31 27 26 27 28 29 30 31 30 30 30 30 29 31 34 35 36 37 40 43 44 43 39 37 40 44 44 41 41 43 44 46 48 49 49 49 50 51 53 55 56 58 58 59 59 58 58 58 59 60 60 62 65 67 68 69 70 70 70 70 69 69 68 67 66 63 61 60 60 59 59 58
33 34 35 33 30 29 27 27 28 30 31 32 34 34 32 31 33 35 37 37 38 41 43 45 44 40 38 41 45 44 42 43 44 44 44 45 45 45 46 47 48 50 52 53 55 57 57 57 56 57 58 59 60 60 62 64 65 66 69 71 72 72 71 71 70 70 69 67 64 63 62 62 61 60
32 34 35 36 35 32 30 29 30 31 32 34 36 37 37 36 35 34 36 37 37 40 44 47 48 47 43 40 43 46 46 44 43 43 43 43 43 43 43 43 43 44 44 45 46 48 50 53 54 55 56 58 58 58 59 60 61 62 65 69 71 72 72 73 72 72 71 70 68 66 64 63 62 62
25 31 34 35 36 35 33 32 32 33 33 34 35 37 39 41 41 38 37 37 36 36 40 46 50 52 51 45 41 42 44 44 43 43 42 42 42 42 42 43 43 43 43 43 42 43 44 46 48 50 52 54 55 55 55 55 57 58 60 62 65 67 68 70 72 72 72 72 71 69 67 64 63 63
15 21 28 32 34 35 35 34 34 34 33 33 34 35 37 39 41 42 41 40 38 35 35 40 47 52 54 51 46 42 40 41 41 41 41 42 42 41 41 42 42 43 43 44 45 45 45 45 45 45 45 47 49 51 52 52 52 53 54 55 57 59 60 63 67 71 72 72 72 71 69 66 64 63
12 13 17 22 25 28 29 31 32 33 33 32 32 33 35 35 37 39 39 39 39 37 35 35 40 48 52 52 50 47 43 42 42 42 43 43 43 43 42 42 41 41 41 43 44 45 45 46 46 46 46 46 46 47 49 50 51 51 52 52 53 54 55 57 60 65 68 70 71 71 69 67 65 62
14 14 14 16 17 18 20 22 25 28 29 30 30 30 33 34 34 34 35 35 35 36 35 34 35 41 47 49 49 48 45 43 43 44 44 45 45 44 43 42 42 40 40 41 42 44 45 46 46 46 47 47 48 48 48 49 51 51 52 53 54 54 55 55 56 58 61 64 66 66 65 64 63 62
15 15 15 16 16 17 17 18 20 23 24 25 27 28 31 33 34 34 34 34 34 34 35 35 34 35 39 43 46 45 43 41 41 42 42 43 43 43 42 41 41 41 40 40 41 43 44 46 47 47 47 47 49 50 50 50 51 51 52 54 55 56 56 57 57 57 58 60 62 63 63 63 63 62
16 16 17 18 19 19 20 20 20 22 23 23 24 26 28 31 33 34 34 34 33 33 33 33 33 33 34 36 38 38 37 37 37 37 37 38 39 40 41 41 42 43 42 42 42 43 44 45 46 48 48 48 48 49 51 51 52 52 52 53 55 56 58 58 59 59 59 60 61 61 62 63 63 64
18 18 19 19 20 21 21 21 22 22 23 24 25 26 28 29 30 32 32 31 31 31 30 29 29 31 32 33 33 33 32 33 33 34 35 37 39 41 42 44 45 45 46 46 46 46 46 46 46 47 48 49 49 50 51 52 53 53 53 54 55 57 58 59 60 61 61 61 62 62 62 63 64 65
17 18 18 18 19 20 20 22 23 23 24 26 27 28 29 30 31 31 30 30 29 28 27 26 27 28 30 31 31 30 30 31 31 33 36 38 39 40 40 41 42 42 43 45 45 46 47 47 48 48 49 49 49 50 51 52 53 54 55 55 56 56 58 59 60 61 61 61 62 63 64 65 65 66
14 14 15 16 18 19 20 21 23 25 26 27 28 29 29 30 31 30 29 29 29 27 26 25 25 26 27 30 30 29 29 30 31 33 35 36 36 36 36 35 35 35 37 38 40 43 45 46 47 49 50 51 51 51 51 52 53 54 55 55 56 56 57 58 59 60 60 60 61 63 65 66 67 67
13 14 15 17 18 19 20 21 23 24 26 27 27 27 29 30 30 29 28 27 27 26 26 25 24 23 24 27 28 28 29 30 32 33 33 33 33 33 32 31 31 32 33 34 35 37 39 41 43 46 49 51 51 51 52 52 53 53 54 54 54 54 55 56 56 57 58 58 58 60 62 64 65 66
13 15 16 18 19 20 21 22 23 24 25 27 26 26 28 28 27 26 26 26 25 25 25 24 23 23 23 24 26 27 28 30 32 33 33 33 32 31 29 29 29 30 29 29 30 33 35 37 39 41 44 47 49 50 51 52 53 54 54 54 53 53 53 53 54 54 55 55 56 56 58 59 60 62
13 14 16 17 19 21 22 23 25 26 27 28 29 29 28 26 23 22 23 24 24 24 24 24 24 24 23 23 23 25 27 29 31 33 33 33 32 31 30 30 30 29 27 27 29 31 33 36 38 40 41 44 46 47 48 49 51 52 53 54 55 54 54 54 54 53 53 54 54 55 56 57 58 59
9 11 13 15 17 19 22 23 25 27 28 29 31 31 30 27 24 24 23 23 23 24 24 24 26 25 23 22 22 23 25 27 29 32 33 33 32 31 31 31 31 30 29 28 30 32 33 35 37 39 41 42 43 45 46 47 48 49 50 52 53 54 54 54 54 54 53 53 53 54 55 55 56 57
7 9 11 12 15 18 20 23 25 27 28 29 30 29 28 27 25 25 25 24 22 23 24 25 26 25 23 22 22 23 24 25 26 28 29 30 30 30 31 31 31 30 28 28 30 31 33 34 36 38 39 40 41 43 44 44 45 46 47 48 50 51 52 52 53 53 53 53 53 53 54 54 54 55
6 6 7 9 10 13 16 19 21 22 23 26 27 26 25 24 23 25 26 25 23 22 24 25 25 24 23 22 21 21 21 21 22 23 25 27 28 29 29 30 30 29 28 28 29 30 30 30 31 33 35 37 39 40 41 42 43 44 45 46 47 48 49 50 51 51 52 53 53 53 54 54 54 54
7 9 10 11 10 11 12 13 14 15 15 19 23 24 22 21 22 24 25 25 24 23 23 23 24 24 23 22 21 20 18 18 20 21 23 25 26 27 28 28 28 28 28 28 29 29 29 28 28 29 30 32 34 36 37 39 40 41 43 44 45 46 47 48 49 49 50 51 52 53 53 54 54 54
9 11 12 12 11 10 10 9 9 9 10 14 17 20 21 21 22 24 25 25 26 25 22 22 23 24 23 22 21 19 19 19 20 20 22 23 24 25 25 26 26 27 27 27 28 28 28 28 28 28 29 30 31 32 34 36 37 39 40 42 43 45 46 47 48 49 50 51 51 52 53 53 54 54
10 11 12 11 9 7 6 3 2 2 6 10 14 18 20 20 21 24 23 23 24 23 20 19 20 21 22 22 22 21 21 21 20 20 21 22 23 23 24 25 26 26 26 26 27 27 27 27 27 28 28 29 30 30 31 33 35 36 38 40 42 43 44 45 47 48 49 51 52 53 54 54 54 54
9 10 11 11 8 5 2 1 2 2 4 7 11 15 18 19 21 22 21 19 19 19 19 19 19 20 21 21 21 21 21 21 21 21 21 22 22 23 24 25 26 27 27 27 27 27 27 27 27 27 28 29 29 29 30 31 33 34 35 37 40 42 43 44 46 47 48 50 51 52 53 54 54 54
8 8 10 10 7 3 2 4 4 4 5 7 9 12 15 19 21 21 20 19 18 17 18 19 18 18 19 19 19 20 21 21 21 21 21 22 23 24 26 26 27 27 28 28 28 28 28 28 28 28 29 29 30 30 31 32 33 33 33 35 37 40 42 43 45 46 47 49 50 51 52 52 53 53
7 8 8 8 6 4 4 5 4 5 7 8 10 13 17 20 20 19 18 17 16 15 16 17 17 17 18 18 19 20 20 20 20 21 22 23 23 24 25 26 25 25 25 26 27 27 28 28 29 30 31 31 32 33 34 35 34 33 33 34 35 37 39 41 43 45 46 47 48 49 50 51 51 52
6 7 6 6 6 5 5 6 6 6 9 11 14 17 19 19 17 16 16 16 16 16 16 17 17 18 18 19 19 19 20 20 21 22 23 23 24 24 25 25 25 25 25 26 27 27 28 29 29 31 32 33 35 36 36 36 35 33 33 33 33 34 36 38 40 43 45 46 47 48 49 49 49 49
5 5 4 5 6 5 6 7 8 10 12 16 18 19 18 16 16 15 15 14 15 15 16 17 18 18 18 18 18 18 19 20 21 22 23 23 24 25 26 27 27 27 28 28 29 29 30 31 31 32 34 35 38 39 38 36 35 35 34 34 34 34 35 36 39 42 44 46 47 47 47 46 46 46
6 5 4 3 4 5 6 8 11 14 16 18 19 18 16 15 16 16 15 15 15 16 16 17 17 17 17 17 17 18 19 20 21 22 23 24 25 26 27 28 29 29 30 30 30 31 32 34 35 36 38 39 41 42 39 38 38 37 36 36 36 37 37 39 40 42 43 45 45 46 45 45 45 46
7 6 4 3 2 3 5 7 10 15 18 19 19 18 17 18 19 19 18 17 17 17 17 17 17 17 17 17 18 19 20 21 22 23 24 25 26 27 28 29 30 31 32 32 33 34 36 37 38 40 41 42 43 42 41 40 40 40 39 40 41 41 42 43 43 42 42 43 44 44 44 45 45 46
8 6 4 3 2 1 2 5 8 12 16 18 19 20 20 20 20 20 19 18 18 18 18 19 19 19 19 20 21 22 23 23 24 25 26 27 28 29 31 32 33 34 35 35 36 38 39 40 41 41 41 42 42 42 41 42 43 43 43 44 44 44 44 44 43 42 41 42 42 43 44 44 45 46
10 7 5 2 2 2 2 3 5 8 11 15 17 19 19 19 19 19 20 20 19 20 20 21 22 22 23 24 24 25 26 27 28 29 30 31 33 34 35 35 35 36 37 37 38 39 40 39 39 38 39 40 40 41 42 44 44 43 43 43 43 43 42 42 41 41 41 41 42 43 44 44 45 45
10 8 6 3 1 2 3 4 6 7 9 11 13 15 17 17 18 19 20 20 21 21 22 23 25 25 26 27 28 29 29 30 31 32 33 34 34 35 34 34 34 35 35 36 37 37 36 36 36 36 37 38 39 40 42 42 42 40 40 40 40 40 40 40 40 40 41 41 42 43 43 43 44 44
10 9 7 4 1 1 3 4 6 8 9 11 13 14 16 17 18 19 20 21 22 22 23 24 25 26 27 27 28 28 28 28 29 29 29 30 30 29 29 30 30 31 32 32 32 32 32 33 34 35 36 36 37 38 39 38 37 36 36 36 37 37 38 38 39 39 40 41 42 42 41 41 42 43
10 9 7 5 3 2 2 4 5 6 8 9 11 13 14 15 16 17 18 19 20 20 21 22 22 22 23 23 23 23 23 23 23 23 24 24 23 24 24 25 26 26 27 28 28 29 30 31 31 32 33 34 35 35 35 33 33 33 33 33 34 35 36 37 38 39 40 40 40 40 39 40 41 41
10 8 7 5 4 3 3 3 4 5 6 6 7 9 9 10 12 13 14 14 15 15 16 16 17 17 17 17 17 18 18 18 18 19 19 19 20 20 20 21 22 22 23 24 25 26 27 28 28 29 30 31 31 31 31 30 30 30 30 31 32 34 35 36 37 38 38 39 38 38 38 39 40 39
9 7 6 5 5 4 4 4 5 5 5 6 6 6 7 8 9 10 10 11 11 12 12 13 13 14 14 14 14 15 15 15 16 16 17 17 17 17 18 19 19 20 20 21 22 23 23 25 26 27 27 27 28 29 29 28 29 29 30 31 32 33 34 35 37 37 38 38 37 37 38 39 39 40
Wind_Direction
237 238 236 235 236 235 233 234 231 224 225 231 230 226 229 237 240 238 234 232 233 234 233 232 232 233 235 237 237 236 235 234 232 231 229 228 227 228 229 229 230 231 232 232 232 232 231 230 230 229 227 226 224 222 223 224 224 223 224 222 218 215 216 220 227 231 232 234 238 238 237 238 239 240
238 240 235 234 236 236 233 231 229 224 224 230 230 225 225 231 237 239 237 233 231 232 233 234 234 233 233 234 236 236 236 235 233 231 228 227 227 228 227 228 229 231 232 231 231 232 231 229 229 230 229 227 226 225 224 225 225 225 225 224 219 215 214 217 221 224 229 235 239 239 239 241 242 242
239 240 233 232 236 234 229 226 225 223 224 229 230 227 226 230 236 240 240 235 231 231 232 234 235 235 234 234 233 233 234 234 233 232 228 224 225 227 227 227 227 230 232 232 231 231 231 229 228 229 230 229 228 227 226 226 226 225 226 226 224 221 218 218 220 222 227 233 237 239 240 241 243 245
237 239 233 232 235 232 227 226 224 221 221 223 225 227 227 230 234 238 240 236 231 230 231 232 234 233 233 234 233 230 230 230 231 232 228 224 222 224 227 227 227 228 231 234 233 231 231 231 228 227 229 229 229 229 229 228 227 226 226 226 227 226 223 220 220 222 224 227 233 238 239 240 243 245
228 235 234 231 230 229 228 229 227 223 219 218 224 229 228 225 225 226 231 235 231 228 229 231 232 230 229 232 233 232 230 229 230 231 230 226 222 223 225 226 225 226 229 233 234 231 230 231 230 228 227 229 229 230 230 230 230 229 228 227 228 228 226 223 222 223 224 225 230 234 237 240 242 245
220 231 234 229 227 227 228 228 227 222 219 220 227 231 228 224 224 221 221 227 228 228 228 230 231 229 226 227 231 233 233 232 232 233 232 229 226 222 223 223 223 224 226 229 232 232 230 230 231 230 228 228 229 230 230 231 232 233 232 230 230 229 228 227 227 227 227 226 228 232 236 239 242 245
211 225 232 230 226 228 227 225 224 219 219 224 232 235 230 227 227 226 227 228 227 226 228 230 231 230 226 224 226 229 231 231 232 233 233 231 229 224 222 222 223 224 225 227 228 230 230 229 230 232 231 229 229 230 230 231 232 234 234 234 233 233 233 232 231 231 230 229 229 231 235 238 240 243
209 217 226 229 230 231 227 224 223 219 219 225 231 235 237 234 229 227 230 233 231 228 227 228 229 231 229 224 222 224 226 228 228 228 228 227 226 224 222 222 223 223 223 225 227 229 231 232 231 232 233 233 232 231 231 231 232 233 234 235 236 236 237 237 236 235 234 233 232 233 235 236 238 240
213 214 218 223 228 231 228 225 224 220 219 224 227 231 237 239 234 227 226 231 232 230 227 224 225 228 230 227 223 221 223 225 227 227 227 225 223 222 221 222 223 224 224 225 227 229 232 233 234 234 234 235 235 235 233 232 232 233 234 236 237 237 238 239 239 238 237 237 237 238 238 238 238 239
216 217 217 217 222 229 231 229 228 226 222 222 224 227 233 236 236 231 227 226 229 229 227 224 221 223 228 230 228 224 223 224 226 227 228 228 227 225 224 224 226 228 229 229 230 232 234 236 236 236 236 236 237 237 236 235 233 233 233 235 236 237 238 239 240 240 239 238 239 240 240 240 239 239
221 222 222 221 222 228 233 233 233 233 230 225 224 226 229 231 234 235 232 228 227 227 228 227 224 221 224 229 231 229 226 225 225 226 228 230 231 231 230 230 230 231 232 234 235 236 237 238 237 237 238 237 237 238 238 238 237 235 233 234 235 236 237 239 240 241 241 240 239 240 240 240 240 240
227 225 224 224 225 227 231 233 234 235 235 232 229 229 231 231 231 234 236 234 231 229 228 229 230 227 224 226 230 231 229 228 228 227 228 229 230 231 231 231 232 232 232 232 234 235 236 238 238 239 239 239 238 238 238 238 239 238 237 236 236 237 237 237 239 242 242 242 241 240 239 239 240 240
231 229 226 225 228 230 232 232 234 235 236 235 234 234 236 236 234 234 235 236 235 233 231 229 231 233 231 226 226 230 232 233 233 232 232 232 232 232 232 232 232 232 232 232 232 233 234 236 238 239 239 240 240 239 239 238 239 240 239 238 238 239 239 238 238 239 242 242 243 242 240 238 238 239
230 231 231 230 230 233 235 235 236 236 236 236 236 236 237 237 236 236 236 236 235 236 236 233 230 232 233 231 227 226 230 233 234 234 235 236 236 237 237 238 238 239 240 240 239 239 238 237 238 238 238 239 240 240 240 239 239 240 240 239 239 239 240 241 239 238 239 241 242 242 242 240 238 238
227 229 232 233 235 237 239 238 238 237 237 238 238 237 236 236 235 236 238 239 239 241 241 237 232 230 231 233 232 230 229 231 233 235 237 238 239 240 241 242 243 244 246 247 247 247 246 245 244 243 241 241 241 241 240 239 239 239 240 240 240 241 241 242 241 240 239 239 239 240 241 241 240 239
230 229 228 230 233 237 239 239 238 238 238 239 241 238 234 233 233 235 237 238 239 242 243 239 235 231 229 231 233 235 236 237 238 240 241 242 243 244 244 245 245 246 246 246 247 248 248 247 247 247 246 245 245 245 244 242 241 240 240 240 241 241 242 242 241 241 240 239 238 238 239 240 240 240
228 232 228 223 225 229 231 233 234 234 235 238 240 237 232 231 232 233 235 236 236 238 240 239 236 233 231 231 232 234 237 238 238 239 241 243 244 245 245 245 245 245 244 243 244 245 246 247 247 247 246 245 245 246 246 246 244 243 241 241 241 241 241 242 241 241 241 240 239 238 238 239 240 240
230 232 229 224 224 226 226 226 226 228 230 233 235 235 233 233 234 236 236 237 236 236 237 239 238 235 233 232 233 234 236 237 237 238 240 242 244 245 245 244 243 243 242 242 243 243 244 246 247 247 247 245 245 245 245 246 246 245 244 243 242 241 241 242 242 242 241 241 239 238 238 238 239 239
237 238 235 230 227 228 229 228 226 225 225 227 229 232 234 234 236 237 237 238 238 238 238 239 239 238 236 234 233 233 235 236 237 238 238 239 240 240 241 241 241 241 241 241 242 243 243 243 244 246 247 246 246 245 245 245 246 246 246 245 245 244 243 242 242 242 242 242 241 240 240 239 239 239
239 241 241 238 235 234 234 234 234 232 230 229 228 229 231 233 234 236 237 238 239 240 241 240 238 237 237 236 234 232 232 233 234 234 234 235 237 238 239 240 240 241 241 241 241 242 242 242 242 242 243 244 245 245 245 245 246 246 246 246 246 246 246 245 244 243 242 242 242 242 242 242 241 241
243 245 247 247 243 241 240 238 239 240 239 237 235 233 233 234 235 235 236 236 237 238 239 240 239 237 237 237 235 232 229 228 228 229 231 234 236 237 238 239 240 241 241 241 242 242 241 241 241 241 241 242 243 243 244 244 245 245 245 245 245 246 246 247 246 245 244 243 242 242 242 242 242 242
249 251 252 251 248 244 242 241 241 242 243 242 240 238 238 238 239 239 238 238 238 237 236 236 237 236 236 236 234 230 227 225 225 227 230 233 234 235 237 239 239 240 240 240 241 241 240 240 240 240 240 240 241 241 242 243 243 243 244 244 244 244 245 246 247 247 246 244 243 242 241 241 241 241
249 248 247 247 247 245 241 238 238 238 240 242 241 240 240 240 240 241 241 242 241 239 235 233 232 232 231 231 230 227 224 225 226 227 229 232 233 234 236 237 238 239 240 241 241 242 242 241 240 240 239 239 239 239 240 241 242 242 242 243 243 243 244 244 245 246 246 246 245 244 243 243 243 242
252 250 249 249 251 252 249 244 240 237 236 238 239 238 238 238 239 239 240 240 240 238 235 232 231 230 230 229 227 223 221 222 224 226 228 230 232 233 233 233 234 236 238 239 240 241 241 240 240 240 239 239 239 238 238 239 240 240 241 242 242 243 243 244 244 245 245 245 245 245 244 245 245 245
262 258 256 254 254 255 254 252 249 245 242 241 240 239 237 236 234 233 234 234 234 232 230 227 227 228 228 228 226 223 221 219 220 223 226 228 230 231 231 231 231 232 234 237 239 239 239 239 238 238 238 239 239 238 237 238 238 239 240 241 242 243 243 244 244 244 244 245 245 245 245 245 246 247
278 273 269 265 262 261 260 258 255 252 248 244 242 241 240 237 231 227 227 227 227 226 221 220 223 225 225 225 224 223 222 220 218 220 223 226 228 231 233 233 234 235 239 242 242 241 241 240 239 238 238 238 239 239 238 238 238 239 240 240 241 242 243 244 244 244 245 245 245 246 246 247 248 249
291 284 279 275 272 270 267 264 261 258 254 249 245 241 238 235 228 224 223 221 221 221 217 217 220 222 224 224 222 221 221 220 219 220 223 226 229 232 234 236 237 239 242 244 244 242 242 241 240 239 238 238 238 239 239 239 240 240 241 241 242 243 244 244 245 246 246 246 246 247 247 247 248 249
313 316 312 304 293 282 274 268 264 260 255 250 245 240 235 229 221 218 218 215 214 217 218 218 219 220 221 223 223 222 220 218 217 219 222 225 228 231 234 236 238 239 240 241 242 243 243 242 241 240 239 238 239 239 239 240 240 241 242 243 243 244 244 245 245 246 246 246 247 247 247 247 248 248
344 351 349 337 323 309 295 284 275 266 252 243 239 234 230 222 213 211 212 210 210 215 218 219 220 219 218 221 223 224 221 216 213 214 218 222 226 229 233 235 237 238 238 239 241 243 244 244 243 242 241 240 239 239 239 240 241 241 242 243 244 245 245 246 246 246 247 247 247 247 247 247 248 248
348 354 355 347 333 320 308 293 281 265 241 230 226 221 219 215 208 206 207 205 207 212 217 219 220 218 217 219 221 222 222 219 216 214 216 220 224 229 232 235 237 239 240 242 243 245 245 246 246 245 244 243 242 241 241 241 241 241 242 243 243 244 245 246 247 247 248 248 248 248 248 248 248 249
345 351 355 354 344 326 312 301 295 256 218 210 205 203 207 208 203 202 203 202 204 210 216 220 221 219 217 218 219 221 223 224 223 221 221 224 227 230 233 236 238 239 240 242 243 244 245 244 244 244 244 245 245 244 244 244 243 243 243 243 243 243 244 245 245 246 246 247 247 247 247 248 248 249
340 344 352 359 358 345 341 96 105 101 151 176 185 194 200 198 194 193 195 197 202 208 213 217 219 218 218 218 219 221 225 227 228 228 228 229 232 234 236 238 239 239 239 239 240 241 242 242 243 244 245 246 247 248 249 249 248 248 247 246 246 245 245 245 245 245 245 245 246 246 247 247 248 249
331 335 351 5 9 14 63 106 123 129 146 164 177 187 187 182 181 184 187 191 199 206 210 212 215 217 217 217 217 219 223 226 228 229 231 232 235 237 238 240 241 242 242 242 242 242 243 244 246 247 249 251 252 253 253 253 253 253 253 253 251 249 248 247 246 246 246 245 246 246 247 247 248 248
319 327 351 12 24 46 85 101 116 139 156 166 170 170 169 171 175 181 185 190 200 207 209 212 214 215 215 214 215 218 221 223 225 228 231 233 235 238 240 242 244 245 246 246 247 247 248 249 251 252 254 255 256 256 256 256 255 255 256 256 255 253 251 250 249 248 248 247 247 246 246 247 247 248
315 322 346 18 36 58 90 99 108 131 145 152 155 157 161 167 175 181 187 194 201 205 210 212 213 213 212 211 214 218 220 223 226 229 232 235 238 240 243 245 247 248 248 248 248 249 251 254 256 258 259 260 260 259 258 257 256 255 256 257 257 256 255 253 251 249 248 248 248 248 248 248 248 249
336 330 342 22 48 77 102 106 116 132 142 148 151 155 162 172 180 185 193 201 203 206 212 214 212 212 212 212 216 221 225 229 232 235 238 241 243 245 246 248 249 250 250 252 252 253 254 255 256 257 257 258 260 260 260 260 259 259 259 260 260 260 259 258 255 251 249 248 248 248 249 249 249 249
1 348 342 10 50 87 110 119 129 140 148 154 156 159 169 185 190 191 196 205 207 211 216 217 215 216 218 220 225 230 234 238 241 242 244 245 246 248 249 251 252 253 254 255 255 255 255 255 254 253 253 254 257 260 262 263 263 264 264 265 264 264 263 261 258 254 251 249 249 249 249 249 248 248
13 3 351 347 21 91 115 130 144 152 159 163 166 172 185 197 199 197 200 206 210 214 219 223 225 227 229 233 237 239 243 246 248 249 251 252 253 255 257 259 260 260 259 259 258 257 256 256 255 256 256 257 260 262 264 264 264 265 265 264 263 262 261 260 259 255 253 251 250 249 249 249 248 248
23 17 5 341 321 340 131 148 161 170 174 177 181 189 199 204 203 202 206 211 215 219 223 228 232 236 239 243 247 250 253 255 256 257 258 258 259 260 261 262 262 261 260 259 257 257 257 256 257 258 258 259 260 261 260 260 260 260 260 260 261 262 262 262 261 258 256 254 253 252 251 250 249 249
23 23 19 358 313 290 237 196 191 191 193 196 200 206 213 217 216 216 219 223 226 229 230 233 236 240 243 247 251 254 257 258 259 259 259 259 260 261 261 261 259 257 256 256 255 255 255 255 256 256 256 256 256 257 257 257 258 259 260 261 262 263 262 261 260 258 257 256 255 253 253 252 251 251
14 16 16 12 324 259 246 237 227 219 215 216 218 221 226 230 232 233 234 237 240 241 241 242 244 246 248 251 253 256 258 259 260 260 260 260 260 260 260 259 258 257 257 256 256 255 255 253 253 253 253 254 255 256 256 258 259 261 262 262 262 262 260 259 258 256 256 255 254 254 253 253 252 252
357 358 359 356 339 230 226 231 232 231 231 230 230 231 233 236 239 242 244 246 249 250 251 253 254 255 256 258 259 260 262 262 262 262 261 260 260 259 259 259 259 258 258 257 256 255 253 252 252 253 254 256 257 257 259 261 262 262 262 261 260 259 258 257 256 255 254 253 253 254 254 253 253 252
338 336 334 329 315 267 229 223 225 232 236 238 239 240 241 243 245 248 250 252 253 254 255 257 258 259 260 260 261 261 262 261 261 261 260 260 260 260 261 261 260 259 258 256 255 254 253 253 254 256 257 258 260 261 263 263 263 261 260 259 258 257 256 255 255 254 254 254 254 254 254 253 254 254
325 319 311 303 291 268 242 224 221 227 234 237 240 242 244 246 248 249 250 251 252 253 254 255 256 257 257 258 259 259 260 260 262 262 262 262 262 262 263 263 262 262 261 260 259 258 257 258 258 259 260 261 262 263 264 264 262 261 259 258 257 256 256 256 255 255 255 255 255 255 255 254 254 254
320 310 296 284 272 259 243 228 221 224 226 228 231 234 236 239 241 243 245 246 246 247 248 249 250 251 251 252 254 256 257 259 260 261 262 262 263 264 265 265 265 265 264 264 263 262 262 262 262 263 264 265 265 266 266 265 264 262 261 260 259 259 259 259 259 259 258 257 257 256 255 254 254 254
Height
2859 2862 2864 2866 2869 2873 2876 2879 2882 2886 2890 2893 2896 2899 2903 2907 2909 2912 2915 2918 2924 2931 2934 2938 2944 2948 2952 2956 2961 2965 2970 2976 2980 2984 2987 2990 2994 2998 3001 3005 3009 3013 3018 3022 3026 3031 3035 3038 3040 3043 3046 3049 3052 3055 3057 3060 3063 3065 3067 3070 3073 3075 3078 3080 3082 3084 3085 3086 3087 3090 3092 3093 3095 3098
2856 2857 2859 2862 2865 2868 2871 2873 2877 2880 2884 2888 2891 2894 2898 2901 2904 2907 2909 2913 2920 2926 2929 2933 2938 2942 2947 2951 2954 2958 2963 2968 2972 2976 2980 2983 2987 2991 2994 2997 3001 3005 3010 3014 3019 3023 3028 3032 3035 3037 3041 3044 3046 3049 3052 3054 3057 3060 3062 3065 3067 3070 3073 3075 3077 3079 3080 3081 3083 3085 3088 3089 3091 3093
2852 2853 2855 2858 2860 2863 2866 2869 2872 2876 2879 2883 2886 2889 2893 2896 2899 2902 2904 2908 2914 2920 2923 2927 2932 2936 2941 2944 2947 2951 2956 2961 2965 2968 2972 2977 2981 2984 2987 2990 2994 2998 3002 3006 3011 3016 3020 3025 3028 3031 3034 3037 3040 3043 3046 3049 3051 3054 3057 3060 3062 3065 3068 3070 3072 3074 3076 3077 3079 3081 3083 3085 3087 3089
2848 2850 2851 2854 2856 2859 2862 2865 2868 2871 2875 2878 2882 2885 2889 2892 2895 2898 2899 2902 2908 2915 2919 2922 2925 2929 2933 2937 2940 2944 2949 2953 2957 2961 2965 2969 2973 2976 2979 2983 2987 2991 2995 2999 3003 3008 3012 3017 3021 3024 3027 3031 3034 3037 3040 3043 3046 3048 3051 3054 3056 3059 3062 3065 3067 3069 3071 3073 3075 3076 3078 3080 3082 3084
2844 2846 2848 2850 2853 2856 2859 2862 2864 2867 2871 2874 2878 2881 2884 2887 2890 2893 2895 2898 2903 2909 2913 2916 2919 2922 2925 2929 2933 2938 2942 2946 2950 2954 2958 2961 2965 2968 2972 2977 2981 2984 2988 2992 2996 3000 3004 3009 3013 3017 3021 3024 3028 3031 3034 3037 3040 3043 3045 3048 3050 3053 3057 3059 3062 3064 3066 3069 3070 3071 3073 3075 3077 3079
2840 2842 2845 2847 2850 2853 2856 2858 2861 2864 2868 2871 2874 2877 2880 2883 2886 2888 2891 2894 2898 2903 2907 2911 2914 2916 2919 2923 2927 2932 2936 2940 2943 2947 2951 2954 2958 2962 2965 2969 2974 2977 2981 2985 2989 2993 2997 3001 3005 3010 3013 3017 3021 3024 3028 3031 3034 3037 3040 3042 3044 3047 3050 3053 3056 3059 3061 3064 3065 3067 3068 3070 3072 3074
2837 2839 2842 2844 2848 2850 2853 2855 2858 2861 2864 2867 2870 2873 2876 2878 2881 2883 2887 2890 2894 2898 2902 2905 2909 2912 2914 2917 2922 2926 2930 2933 2937 2941 2944 2948 2952 2955 2959 2962 2967 2971 2974 2978 2982 2986 2990 2993 2998 3002 3005 3009 3013 3016 3020 3024 3027 3031 3033 3036 3039 3042 3044 3046 3049 3053 3055 3057 3060 3062 3064 3066 3068 3069
2834 2836 2839 2842 2845 2847 2849 2852 2855 2858 2861 2864 2867 2869 2871 2873 2876 2879 2882 2886 2889 2894 2897 2900 2904 2907 2910 2913 2916 2920 2923 2927 2930 2934 2938 2941 2945 2949 2953 2956 2961 2964 2967 2971 2975 2979 2983 2986 2990 2994 2997 3000 3004 3008 3012 3015 3019 3023 3026 3029 3033 3036 3038 3040 3042 3046 3049 3051 3053 3056 3058 3061 3063 3065
2832 2834 2836 2839 2842 2844 2847 2849 2852 2855 2858 2860 2863 2866 2867 2869 2872 2876 2879 2882 2885 2889 2893 2896 2899 2902 2905 2908 2910 2913 2917 2921 2924 2928 2932 2936 2939 2943 2947 2950 2954 2957 2959 2963 2967 2971 2975 2979 2983 2987 2990 2993 2995 2999 3003 3007 3011 3015 3018 3022 3026 3029 3032 3034 3036 3039 3042 3045 3047 3049 3052 3055 3057 3059
2830 2832 2834 2837 2839 2841 2844 2847 2849 2852 2855 2857 2860 2863 2864 2866 2869 2872 2876 2878 2881 2885 2889 2892 2895 2897 2900 2903 2906 2908 2912 2915 2919 2923 2926 2930 2934 2937 2941 2945 2948 2950 2953 2956 2960 2964 2969 2973 2976 2980 2984 2987 2988 2991 2995 2999 3003 3007 3010 3014 3018 3022 3025 3027 3030 3032 3035 3038 3041 3043 3046 3048 3051 3053
2828 2830 2832 2835 2837 2839 2842 2844 2847 2850 2852 2855 2857 2860 2862 2864 2866 2869 2872 2875 2878 2881 2884 2887 2890 2893 2895 2898 2901 2904 2907 2910 2913 2917 2921 2925 2929 2933 2936 2939 2941 2944 2947 2950 2954 2958 2962 2966 2969 2973 2976 2979 2982 2985 2988 2990 2994 2998 3002 3005 3009 3013 3017 3020 3023 3025 3028 3032 3035 3037 3039 3041 3044 3046
2825 2827 2830 2832 2835 2837 2840 2842 2844 2847 2849 2852 2854 2857 2859 2861 2863 2866 2868 2871 2874 2876 2879 2882 2885 2888 2890 2893 2896 2899 2902 2905 2909 2914 2918 2922 2925 2928 2931 2933 2935 2938 2941 2944 2948 2952 2955 2959 2962 2966 2969 2972 2975 2978 2981 2983 2986 2990 2994 2998 3001 3005 3009 3012 3015 3018 3021 3024 3028 3031 3033 3034 3037 3039
2822 2824 2827 2830 2832 2835 2837 2839 2841 2844 2846 2848 2851 2853 2855 2857 2860 2862 2864 2867 2870 2872 2875 2877 2880 2883 2885 2888 2892 2894 2898 2903 2907 2911 2914 2917 2920 2922 2924 2927 2929 2932 2936 2939 2943 2946 2949 2953 2956 2959 2962 2965 2968 2971 2973 2977 2979 2982 2986 2990 2993 2997 3001 3004 3008 3010 3013 3016 3020 3023 3026 3028 3031 3033
2819 2821 2824 2827 2829 2832 2834 2836 2838 2840 2842 2844 2847 2849 2851 2853 2855 2858 2861 2863 2866 2868 2870 2873 2875 2878 2881 2885 2888 2891 2895 2900 2903 2905 2908 2911 2914 2916 2919 2922 2925 2928 2931 2934 2938 2941 2943 2946 2949 2953 2956 2959 2962 2965 2967 2970 2973 2976 2979 2982 2985 2988 2992 2996 3000 3003 3006 3008 3011 3015 3018 3021 3024 3026
2817 2818 2821 2823 2826 2828 2830 2832 2834 2836 2838 2840 2842 2845 2847 2849 2851 2854 2856 2859 2862 2864 2866 2868 2871 2873 2877 2881 2884 2888 2891 2894 2897 2900 2903 2905 2908 2911 2914 2918 2921 2924 2927 2930 2932 2935 2938 2941 2944 2948 2951 2953 2956 2959 2961 2964 2967 2969 2972 2975 2978 2981 2984 2988 2991 2995 2998 3000 3003 3006 3009 3013 3016 3019
2815 2817 2818 2820 2822 2824 2826 2828 2830 2832 2834 2836 2838 2840 2842 2844 2847 2849 2852 2855 2858 2860 2862 2864 2866 2869 2873 2877 2880 2883 2887 2890 2893 2895 2897 2900 2903 2907 2910 2914 2917 2920 2922 2924 2926 2929 2932 2935 2939 2943 2946 2948 2951 2953 2955 2958 2961 2963 2966 2969 2971 2974 2977 2980 2984 2987 2990 2993 2996 2999 3002 3004 3007 3010
2814 2815 2817 2818 2820 2821 2823 2824 2826 2828 2830 2832 2833 2835 2838 2840 2843 2845 2848 2851 2853 2856 2858 2860 2862 2865 2869 2872 2876 2880 2883 2886 2888 2890 2892 2895 2899 2902 2905 2909 2912 2915 2916 2918 2921 2923 2926 2930 2934 2937 2940 2943 2945 2947 2950 2952 2955 2957 2960 2963 2965 2968 2971 2974 2977 2980 2983 2986 2989 2992 2995 2998 3000 3003
2812 2814 2815 2816 2818 2819 2820 2822 2823 2825 2827 2828 2830 2832 2834 2836 2838 2841 2843 2846 2849 2851 2853 2855 2858 2861 2864 2868 2872 2876 2878 2880 2883 2886 2889 2892 2894 2898 2901 2904 2907 2908 2911 2913 2916 2919 2922 2925 2928 2931 2934 2936 2939 2942 2944 2947 2950 2952 2955 2957 2960 2962 2965 2968 2971 2974 2976 2979 2982 2985 2988 2990 2993 2995
2811 2812 2813 2814 2816 2817 2818 2819 2821 2822 2824 2825 2827 2829 2830 2832 2835 2837 2839 2842 2844 2847 2849 2851 2854 2857 2860 2863 2867 2870 2872 2875 2878 2881 2883 2886 2889 2892 2895 2897 2900 2903 2906 2909 2911 2914 2917 2920 2923 2925 2928 2930 2932 2935 2938 2941 2944 2946 2948 2951 2953 2956 2959 2961 2964 2967 2969 2972 2975 2978 2980 2983 2985 2987
2809 2810 2811 2812 2814 2815 2816 2818 2819 2820 2822 2823 2824 2826 2827 2829 2831 2833 2835 2838 2840 2843 2845 2848 2850 2853 2856 2858 2861 2865 2868 2870 2873 2875 2877 2879 2882 2885 2888 2891 2894 2897 2900 2903 2905 2909 2912 2914 2917 2919 2921 2923 2926 2929 2932 2934 2937 2939 2942 2944 2947 2949 2952 2955 2957 2960 2962 2965 2967 2970 2973 2975 2977 2980
2808 2808 2809 2810 2812 2813 2814 2816 2817 2818 2819 2820 2821 2823 2825 2826 2828 2830 2832 2835 2837 2839 2842 2844 2846 2849 2851 2854 2857 2860 2863 2866 2868 2869 2871 2874 2877 2880 2883 2886 2889 2892 2894 2897 2900 2903 2906 2909 2911 2914 2916 2918 2921 2923 2926 2928 2930 2933 2935 2938 2940 2943 2945 2948 2950 2953 2955 2958 2960 2963 2965 2967 2970 2972
2806 2807 2807 2808 2809 2810 2811 2813 2814 2814 2815 2816 2818 2819 2821 2823 2824 2827 2830 2832 2834 2836 2838 2840 2842 2845 2847 2849 2852 2855 2859 2861 2863 2865 2867 2870 2873 2876 2878 2882 2885 2887 2889 2892 2894 2897 2899 2902 2905 2908 2910 2912 2915 2918 2921 2923 2925 2927 2929 2932 2934 2937 2939 2941 2943 2946 2948 2951 2953 2956 2958 2960 2962 2964
2804 2804 2805 2805 2806 2806 2808 2809 2810 2811 2811 2812 2814 2816 2817 2818 2821 2824 2827 2829 2831 2833 2835 2837 2839 2841 2843 2845 2847 2850 2854 2857 2859 2861 2864 2867 2869 2872 2875 2878 2880 2882 2884 2887 2889 2891 2894 2897 2900 2902 2904 2906 2909 2912 2915 2917 2919 2921 2923 2926 2928 2930 2933 2935 2936 2939 2941 2943 2946 2948 2950 2952 2954 2956
2801 2801 2802 2802 2802 2803 2803 2804 2805 2807 2807 2808 2810 2811 2813 2814 2818 2821 2823 2825 2828 2830 2833 2834 2836 2838 2839 2841 2843 2846 2849 2852 2855 2858 2860 2863 2865 2868 2871 2873 2875 2878 2881 2883 2885 2887 2889 2892 2894 2896 2898 2900 2903 2906 2909 2911 2913 2915 2917 2919 2922 2924 2926 2928 2929 2932 2934 2936 2938 2940 2943 2944 2946 2948
2798 2798 2798 2798 2799 2799 2799 2800 2801 2802 2803 2804 2805 2806 2808 2811 2815 2818 2820 2822 2824 2827 2830 2832 2833 2835 2837 2838 2840 2843 2845 2848 2851 2854 2856 2859 2862 2864 2867 2869 2872 2874 2877 2879 2880 2882 2884 2886 2888 2890 2892 2894 2896 2900 2902 2904 2906 2908 2910 2913 2915 2917 2919 2920 2923 2925 2927 2929 2931 2933 2935 2936 2938 2940
2795 2795 2795 2795 2795 2795 2795 2795 2796 2796 2798 2799 2800 2801 2804 2808 2811 2814 2816 2818 2821 2823 2826 2829 2830 2832 2834 2836 2838 2840 2842 2844 2847 2850 2853 2856 2859 2861 2863 2866 2868 2871 2873 2875 2876 2878 2879 2881 2882 2884 2886 2889 2891 2893 2896 2898 2900 2902 2904 2906 2908 2910 2911 2913 2916 2918 2920 2922 2924 2925 2927 2929 2931 2933
2794 2793 2793 2792 2792 2791 2791 2791 2791 2791 2792 2793 2795 2798 2800 2803 2807 2810 2812 2815 2817 2820 2823 2825 2827 2830 2832 2833 2835 2837 2839 2842 2845 2848 2850 2853 2856 2858 2860 2862 2864 2867 2869 2871 2872 2873 2874 2876 2877 2879 2881 2883 2885 2887 2890 2892 2894 2896 2898 2900 2902 2903 2905 2907 2909 2911 2913 2915 2916 2918 2920 2922 2924 2925
2792 2792 2791 2790 2789 2789 2788 2787 2787 2787 2788 2789 2791 2794 2797 2800 2803 2806 2808 2811 2815 2817 2819 2822 2824 2827 2829 2831 2833 2835 2838 2841 2843 2846 2848 2850 2852 2854 2856 2858 2860 2863 2865 2866 2867 2869 2870 2871 2873 2875 2876 2878 2880 2882 2884 2886 2888 2890 2892 2893 2895 2897 2898 2900 2902 2904 2906 2907 2909 2911 2913 2915 2917 2918
2791 2790 2789 2788 2787 2786 2785 2784 2784 2784 2784 2785 2787 2790 2793 2796 2799 2802 2805 2809 2812 2815 2817 2819 2822 2824 2827 2829 2831 2834 2836 2839 2841 2843 2845 2847 2849 2851 2853 2855 2857 2859 2861 2862 2863 2865 2866 2867 2869 2870 2872 2873 2875 2877 2879 2881 2882 2884 2886 2887 2889 2891 2892 2894 2896 2897 2899 2900 2902 2904 2906 2908 2909 2911
2790 2788 2787 2786 2785 2784 2783 2782 2782 2782 2782 2783 2785 2788 2791 2794 2796 2799 2802 2806 2809 2812 2815 2817 2819 2822 2825 2827 2830 2832 2834 2836 2838 2840 2842 2844 2846 2848 2850 2852 2854 2856 2857 2859 2860 2861 2862 2864 2865 2866 2867 2869 2870 2872 2874 2876 2877 2879 2880 2882 2883 2884 2886 2888 2889 2891 2892 2894 2895 2897 2898 2900 2902 2903
2789 2788 2787 2785 2784 2783 2783 2782 2781 2781 2781 2782 2783 2786 2789 2792 2795 2798 2801 2805 2808 2811 2814 2816 2818 2820 2823 2825 2828 2830 2831 2834 2836 2838 2840 2842 2844 2846 2847 2849 2850 2852 2853 2855 2856 2857 2859 2860 2861 2862 2863 2864 2866 2867 2869 2870 2872 2873 2875 2876 2877 2878 2880 2881 2883 2884 2885 2886 2887 2889 2891 2892 2894 2896
2788 2787 2786 2785 2784 2783 2782 2782 2781 2781 2781 2782 2784 2786 2788 2791 2794 2797 2801 2804 2807 2810 2812 2814 2817 2819 2821 2823 2825 2827 2829 2832 2834 2836 2838 2839 2841 2843 2844 2845 2846 2848 2850 2851 2852 2854 2855 2856 2857 2858 2859 2860 2861 2863 2864 2865 2866 2867 2869 2870 2871 2872 2874 2875 2876 2877 2878 2878 2880 2882 2883 2885 2887 2889
2788 2787 2786 2785 2784 2783 2782 2782 2782 2782 2783 2783 2785 2786 2788 2791 2794 2797 2801 2804 2806 2809 2811 2813 2815 2817 2819 2821 2823 2825 2827 2829 2831 2833 2835 2837 2838 2839 2840 2842 2843 2844 2846 2847 2849 2850 2851 2852 2853 2854 2854 2855 2856 2857 2858 2859 2860 2862 2863 2864 2865 2866 2867 2868 2869 2870 2871 2872 2873 2875 2876 2878 2880 2881
2788 2787 2786 2785 2784 2783 2782 2782 2783 2783 2784 2784 2786 2787 2790 2792 2795 2798 2801 2803 2806 2808 2810 2812 2814 2816 2817 2819 2821 2823 2825 2827 2829 2831 2832 2834 2835 2836 2837 2838 2840 2841 2843 2844 2845 2846 2847 2848 2849 2849 2850 2851 2851 2852 2853 2854 2855 2856 2857 2858 2858 2859 2860 2861 2862 2863 2864 2865 2867 2868 2869 2871 2873 2874
2787 2787 2786 2785 2784 2784 2783 2783 2783 2784 2785 2786 2787 2789 2791 2794 2796 2799 2801 2803 2805 2807 2809 2811 2812 2814 2816 2818 2819 2821 2823 2825 2826 2828 2829 2831 2832 2833 2834 2835 2837 2838 2839 2840 2841 2842 2843 2844 2844 2845 2845 2845 2846 2846 2847 2848 2849 2851 2852 2852 2853 2854 2854 2855 2855 2856 2857 2858 2859 2861 2862 2865 2866 2867
2787 2787 2786 2786 2785 2785 2784 2784 2784 2785 2786 2788 2789 2791 2794 2796 2797 2799 2801 2803 2805 2806 2808 2809 2811 2813 2814 2816 2818 2819 2821 2823 2824 2825 2827 2828 2829 2830 2831 2832 2833 2834 2835 2836 2837 2838 2838 2839 2840 2840 2840 2840 2840 2840 2841 2843 2844 2845 2846 2847 2848 2848 2848 2848 2848 2849 2849 2851 2852 2853 2855 2858 2859 2860
2787 2787 2786 2786 2786 2786 2785 2785 2785 2786 2788 2789 2791 2793 2795 2796 2797 2799 2801 2802 2804 2806 2807 2808 2810 2812 2813 2815 2816 2818 2819 2820 2821 2823 2824 2825 2826 2826 2827 2828 2829 2830 2831 2831 2832 2833 2833 2834 2834 2834 2835 2835 2834 2835 2837 2838 2839 2839 2840 2841 2841 2842 2842 2841 2841 2842 2843 2844 2845 2847 2848 2850 2852 2851
2788 2787 2787 2787 2786 2787 2787 2787 2787 2788 2789 2790 2792 2793 2795 2796 2797 2799 2800 2802 2803 2805 2806 2807 2809 2810 2811 2813 2814 2815 2817 2818 2819 2820 2821 2822 2822 2823 2823 2824 2824 2825 2826 2826 2827 2827 2828 2828 2828 2829 2829 2829 2829 2830 2832 2833 2833 2833 2834 2833 2833 2834 2834 2833 2834 2835 2836 2837 2839 2840 2841 2842 2844 2843
2789 2788 2787 2787 2787 2787 2787 2788 2788 2789 2790 2791 2792 2793 2794 2795 2796 2798 2800 2801 2802 2804 2805 2806 2807 2808 2809 2810 2812 2813 2814 2815 2816 2816 2817 2818 2818 2818 2819 2819 2819 2820 2820 2821 2821 2821 2822 2822 2823 2823 2824 2824 2824 2825 2826 2826 2826 2826 2827 2826 2826 2827 2827 2827 2828 2829 2830 2831 2832 2833 2834 2835 2836 2836
2789 2788 2788 2788 2787 2787 2788 2788 2789 2789 2790 2791 2792 2793 2793 2794 2796 2797 2799 2800 2801 2802 2804 2805 2806 2807 2808 2808 2809 2810 2810 2811 2812 2812 2813 2813 2813 2813 2814 2814 2814 2814 2814 2815 2815 2815 2816 2817 2818 2818 2818 2818 2818 2819 2819 2818 2818 2820 2820 2820 2820 2821 2821 2821 2822 2822 2823 2824 2825 2825 2826 2827 2828 2829
2790 2789 2788 2788 2787 2787 2788 2788 2788 2789 2790 2791 2791 2792 2793 2794 2795 2796 2797 2798 2799 2800 2801 2802 2803 2804 2805 2805 2806 2806 2807 2807 2808 2808 2808 2808 2808 2808 2808 2808 2808 2809 2809 2809 2809 2810 2811 2811 2812 2812 2812 2812 2812 2812 2812 2812 2813 2815 2815 2815 2814 2814 2815 2815 2815 2816 2816 2817 2817 2817 2819 2820 2821 2821
2790 2789 2788 2788 2787 2787 2787 2787 2788 2788 2789 2789 2790 2790 2791 2792 2793 2794 2795 2795 2796 2797 2798 2799 2799 2800 2801 2801 2802 2802 2802 2802 2803 2803 2803 2803 2803 2803 2803 2803 2804 2804 2804 2804 2805 2805 2805 2805 2806 2806 2806 2806 2806 2806 2806 2807 2809 2809 2809 2809 2808 2808 2808 2809 2809 2809 2809 2810 2810 2811 2813 2813 2813 2814
2789 2788 2788 2787 2787 2787 2787 2787 2787 2787 2788 2788 2789 2789 2790 2790 2791 2792 2792 2793 2794 2794 2795 2795 2796 2796 2797 2797 2797 2798 2798 2798 2798 2798 2798 2799 2799 2799 2799 2799 2799 2799 2800 2800 2800 2800 2800 2800 2801 2801 2801 2801 2801 2801 2802 2803 2804 2803 2803 2803 2803 2803 2803 2803 2803 2803 2803 2804 2805 2806 2807 2807 2807 2808
2788 2787 2787 2787 2786 2786 2786 2786 2786 2786 2787 2787 2788 2788 2789 2789 2790 2790 2790 2791 2791 2792 2792 2792 2793 2793 2794 2794 2794 2794 2795 2795 2795 2795 2795 2795 2795 2795 2795 2796 2796 2796 2796 2796 2796 2796 2796 2796 2797 2797 2797 2797 2797 2797 2798 2799 2798 2798 2798 2798 2798 2798 2797 2797 2797 2797 2798 2799 2800 2801 2801 2801 2801 2802
2787 2786 2785 2785 2785 2785 2786 2786 2786 2786 2786 2786 2787 2787 2788 2788 2789 2789 2789 2789 2790 2790 2790 2791 2791 2791 2791 2792 2792 2792 2792 2792 2792 2793 2793 2793 2792 2792 2793 2792 2792 2793 2793 2792 2793 2793 2793 2793 2793 2793 2793 2793 2793 2793 2794 2794 2793 2793 2793 2793 2793 2793 2793 2792 2792 2792 2792 2794 2795 2795 2795 2795 2795 2796